Location: Omaha
(41.2590°N, 95.9380°W)
Time: 23:19:33
(UTC-05:00)

Envisat - Visible Passes

Search period start: 16 July 2018 00:00
Search period end: 26 July 2018 00:00
Orbit: 764 x 766 km, 98.2° (Epoch: 16 July)

Date Brightness Start Highest point End Pass type
(mag) Time Alt. Az. Time Alt. Az. Time Alt. Az.
17 Jul 5.7 22:01:52 10° WSW 22:04:25 14° W 22:06:59 10° WNW visible
18 Jul 4.9 21:22:53 10° SSW 21:27:21 31° W 21:31:50 10° NW visible
20 Jul 5.6 21:49:46 10° SW 21:53:08 18° W 21:56:31 10° NW visible
23 Jul 5.4 21:37:56 10° SW 21:41:51 22° W 21:45:48 10° NW visible
25 Jul 5.8 22:05:37 10° WSW 22:07:42 12° W 22:09:48 10° WNW visible
